Showing default

VSP RF A1, 59135

Orbit data source: Space-Track

VSP RF A1, 59135 is a payload satellite owned by Aerospacelab (BE) in SSO that was launched on Mon, 04 Mar 2024 UTC via an FALCON 9 launch vehicle from the Air Force Western Test Range (AFWTR). Payloads include a variety of satellites, spacecraft, and rockets equipped with specific instruments for various scientific and technological missions. These include communications satellites like Starlink; space stations such as the ISS; scientific satellites like the Hubble; Earth observation satellites from companies like Planet Labs, Umbra, and HawkEye 360; GPS; miniature CubeSats for education and research; and military/defense satellites.

Loading next visibility...
VSP RF A1 details
Identifier
59135, 2024-043AP
Orbit
SSO
Last TLE update4 hours ago
Origin
Flag of BEAerospacelab (BE / BEL)
ManufacturerAerospacelab
MissionOperational Amateur Technology
Bus & MotorAEROSP, Unknown motor
Mass~200 kg wet, ~200 kg dry
Launch date (UTC)
2024-03-04 (11 months ago)
Launch vehicle
FALCON 9
Launch site
Air Force Western Test Range (AFWTR)
Object type
Payload
Rocket body
Debris
Shape & HBRBox, 0.3 m
Radar Cross Section0.800 m², Medium (>0.1 m² and < 1m²)

Expand to show TLE details & history

TLE from 4 hours ago
0 VSP RF A1
1 59135U 24043AP  25044.59871855  .00007175  00000-0  30921-3 0  9997
2 59135  97.4997 172.9341 0012597 153.8694 206.3181 15.22808501 52490
Epoch: 2025-02-13T14:22Z
Definitive object data (Epoch: 2025-02-13T14:22:09.282Z)
Latitude-0.00001°
Longitude173.5229°
Altitude508.233 km
Speed7.606 km/s
True Right ascension11h 31m 44s
True Declination0° 00' 00"
Sunlit
Object was in full shadow at TLE epoch
Visualization TLE readout
Latitude-81.0948°
Longitude-62.97302°
Altitude528.812 km
Speed7.596 km/s
Apparent Right ascension09h 40m 55s
Apparent Declination-70° 07' 14"
Sunlit
Object is in daylight
Visualization observer readout
Local Sidereal Time21:16:42
Azimuth184.067° SSW
Elevation-59.63°
Doppler factor1
Orbital elements
Apogee altitude502.997 km
Perigee altitude485.683 km
Semi-major axis6,872.477 km
Eccentricity0.0012597
Inclination97.4997°
RAAN172.9341°
Arg. of periapsis153.8694°
True anomaly206.25419°
Mean anomaly206.3181°
Eccentric anomaly206.28614°
Mean motion3.80955 °/min
BSTAR0.00030921
Orbital period94.5 mins
Loading maneuver chart data...
Loading historical data...
Loading historical data...
Loading historical data...
Loading historical data...
Loading historical data...
Loading historical data...
Loading historical data...

VSP RF A1 Visibility forecast

Observer location: undefined°, undefined

Span
Click to sort rows by Start time (UTC) header in descending order
Start Az.
Max El. time (UTC)
Max El. Az.
Max El.
End time (UTC)
End Az.
6 mins2025-02-13 21:13:59.335Z15.062° NNE2025-02-13 21:16:59.335Z42.932° NE42.728°2025-02-13 21:19:59.335Z187.388° SSW
5 mins2025-02-14 07:51:59.335Z120.508° SE2025-02-14 07:53:59.335Z74.663° E25.268°2025-02-14 07:56:59.335Z13.539° NNE
|